Weather History for Newport News, VA

Change the Weather History Date:

Wednesday, February 13, 2013

  Actual Average Record
Temperature  
Mean Temperature 48 °F -  
Max Temperature 53 °F 50 °F 75 °F (1951)
Min Temperature 44 °F 30 °F 17 °F (1955)
Degree Days  
Heating Degree Days 16    
Moisture  
Dew Point 41 °F    
Average Humidity 74    
Maximum Humidity 87    
Minimum Humidity 47    
Precipitation  
Precipitation 0.06 in - - ()
Sea Level Pressure  
Sea Level Pressure 29.71 in    
Wind  
Wind Speed 3 mph (NW)    
Max Wind Speed 10 mph    
Max Gust Speed -    
Visibility 6 miles    
Events Rain    
Averages and records for this station are not official NWS values.
T = Trace of Precipitation, MM = Missing Value Source: NWS Daily Summary

Daily Weather History Graph

Daily Weather History Graph

Search for Another Location

Airport:

Trip Planner

Search our weather history database for the weather conditions in past years. The results will help you decide how hot, cold, wet, or windy it might be!

Date:

Astronomy

Feb. 13, 2013 Rise Set
Actual Time 6:56 AM EST 5:44 PM EST
Civil Twilight 6:30 AM EST 6:10 PM EST
Nautical Twilight 5:59 AM EST 6:41 PM EST
Astronomical Twilight 5:29 AM EST 7:11 PM EST
Moon 8:31 AM EST (2/13) 9:37 PM EST (2/13)
Length of Visible Light 11h 40m
Length of Day
10h 47m
Waxing Crescent, 13% of the Moon is Illuminated
Feb 13
Waxing Crescent
Feb 17
First Quarter
Feb 25
Full
Mar 4
Last Quarter
Mar 11
New

Hourly Weather History & Observations

Time (EST) Temp. Windchill Dew Point Humidity Pressure Visibility Wind Dir Wind Speed Gust Speed Precip Events Conditions
12:54 AM 50.0 °F - 33.1 °F 52% 29.93 in 10.0 mi Calm Calm - N/A   Partly Cloudy
1:54 AM 52.0 °F - 32.0 °F 47% 29.92 in 10.0 mi South 3.5 mph - N/A   Overcast
2:54 AM 52.0 °F - 33.1 °F 49% 29.89 in 10.0 mi SSW 8.1 mph - N/A   Overcast
3:54 AM 51.1 °F - 34.0 °F 52% 29.86 in 10.0 mi SW 4.6 mph - N/A   Overcast
4:54 AM 52.0 °F - 35.1 °F 53% 29.84 in 10.0 mi Calm Calm - N/A   Overcast
5:54 AM 48.9 °F - 37.0 °F 64% 29.83 in 10.0 mi Calm Calm - N/A   Overcast
6:54 AM 48.9 °F - 39.0 °F 69% 29.82 in 10.0 mi Calm Calm - N/A   Overcast
7:54 AM 48.9 °F - 39.9 °F 71% 29.83 in 10.0 mi Calm Calm - 0.00 in Rain Light Rain
8:54 AM 51.1 °F - 41.0 °F 68% 29.85 in 9.0 mi SSW 3.5 mph - 0.01 in Rain Light Rain
9:54 AM 52.0 °F - 41.0 °F 66% 29.84 in 10.0 mi South 3.5 mph - 0.00 in   Overcast
10:54 AM 53.1 °F - 39.9 °F 61% 29.82 in 9.0 mi SSW 3.5 mph - 0.00 in Rain Light Rain
11:54 AM 53.1 °F - 39.9 °F 61% 29.77 in 10.0 mi Calm Calm - 0.01 in   Overcast
12:54 PM 53.1 °F - 41.0 °F 64% 29.71 in 10.0 mi Calm Calm - 0.00 in   Overcast
1:11 PM 53.6 °F - 41.0 °F 62% 29.70 in 10.0 mi East 4.6 mph - N/A   Overcast
1:54 PM 51.1 °F - 41.0 °F 68% 29.68 in 10.0 mi ENE 8.1 mph - N/A   Overcast
2:54 PM 48.9 °F - 39.9 °F 71% 29.64 in 10.0 mi East 5.8 mph - 0.00 in   Overcast
3:32 PM 48.2 °F - 42.8 °F 82% 29.64 in 2.0 mi ENE 5.8 mph - 0.00 in   Haze
3:50 PM 48.2 °F - 42.8 °F 82% 29.63 in 2.0 mi East 4.6 mph - 0.00 in Rain Light Rain
3:54 PM 48.0 °F - 43.0 °F 83% 29.62 in 2.0 mi East 4.6 mph - 0.00 in Rain Light Rain
4:01 PM 48.2 °F - 42.8 °F 82% 29.63 in 1.0 mi Calm Calm - 0.00 in Rain Light Rain
4:51 PM 48.2 °F - 42.8 °F 82% 29.62 in 0.8 mi ESE 3.5 mph - 0.03 in Rain Light Rain
4:54 PM 48.0 °F - 43.0 °F 83% 29.62 in 1.0 mi ESE 4.6 mph - 0.03 in Rain Light Rain
5:01 PM 48.2 °F - 42.8 °F 82% 29.64 in 1.2 mi Calm Calm - 0.00 in Rain Light Rain
5:09 PM 48.2 °F - 42.8 °F 82% 29.61 in 2.0 mi East 3.5 mph - 0.00 in   Haze
5:54 PM 46.9 °F - 43.0 °F 86% 29.61 in 2.5 mi Calm Calm - 0.00 in   Overcast
6:01 PM 46.4 °F - 42.8 °F 87% 29.62 in 3.0 mi Calm Calm - N/A   Overcast
6:09 PM 48.2 °F - 42.8 °F 82% 29.62 in 2.0 mi Calm Calm - N/A   Haze
6:15 PM 46.4 °F - 42.8 °F 87% 29.61 in 1.8 mi Calm Calm - N/A   Haze
6:26 PM 46.4 °F - 42.8 °F 87% 29.61 in 3.0 mi Calm Calm - N/A   Haze
6:49 PM 48.2 °F - 42.8 °F 82% 29.62 in 2.0 mi NW 3.5 mph - N/A   Haze
6:54 PM 48.0 °F - 43.0 °F 83% 29.61 in 2.0 mi NW 3.5 mph - 0.01 in   Haze
7:41 PM 48.2 °F - 42.8 °F 82% 29.64 in 3.0 mi NW 5.8 mph - N/A   Haze
7:54 PM 48.0 °F - 43.0 °F 83% 29.62 in 3.0 mi NW 6.9 mph - N/A   Haze
8:02 PM 48.2 °F - 42.8 °F 82% 29.62 in 3.0 mi NW 5.8 mph - N/A   Haze
8:33 PM 48.2 °F - 42.8 °F 82% 29.63 in 4.0 mi NW 8.1 mph - 0.00 in   Haze
8:54 PM 48.0 °F - 43.0 °F 83% 29.65 in 4.0 mi NW 6.9 mph - 0.00 in   Haze
9:14 PM 46.4 °F 42.4 °F 42.8 °F 87% 29.66 in 10.0 mi WNW 8.1 mph - N/A   Overcast
9:54 PM 46.9 °F - 41.0 °F 80% 29.68 in 10.0 mi WNW 8.1 mph - N/A   Overcast
10:54 PM 46.9 °F - 39.9 °F 77% 29.71 in 10.0 mi NW 10.4 mph - N/A   Overcast
11:46 PM 44.6 °F 40.7 °F 39.2 °F 81% 29.74 in 6.0 mi NNW 6.9 mph - 0.00 in   Haze
11:54 PM 45.0 °F 40.1 °F 39.0 °F 80% 29.74 in 10.0 mi NNW 9.2 mph - 0.00 in   Overcast